星链-4468 (STARLINK-4468 )

导读

STARLINK-4468是美国SpaceX公司星链(Starlink)星座的一颗低轨通信卫星,于2022年10月5日发射入轨。星链星座旨在为全球提供宽带互联网服务,该卫星采用平板设计,搭载Ku/Ka波段通信载荷,配备氪工质霍尔推进器,具备自主避撞能力,设计寿命约5-7年,退役后会坠入大气层烧毁。目前运行在约550公里高度的近地轨道,为全球用户提供互联网接入服务。

Basic Information
目录编号:
53969
目录名称:
STARLINK-4468
国际标识:
2022-125F
轨道中心:
EARTH
卫星名称:
星链-4468
卫星全名:
星链-4468 (STARLINK-4468 )
卫星状态:
在轨 (已飞行1430 天)
发射日期:
2022-10-05 UTC
国别 :
美国 (US)
星等 :
--
Orbit Information
数据来源 国际轨道数据
星历时间: 2026-09-04T01:35:47+0800
9小时前
查看轨道信息
半长轴: 6843.35km
偏心率: 0.0001256
轨道倾角: 53.159°
近地点辐角 108.138°
升交点赤经 139.885°
平近点角 251.976°
近地点: 464.353km
远地点: 466.073km
周期: 93.899分钟
每日圈数: 15.33556
Detailed Information
固有亮度:
5
最大亮度:
2.5
卫星平台:
Starlink v1.5
覆盖范围:
全球
运营商:
太空探索技术公司
运营商所在国:
美国
制造商(研发单位):
太空探索技术公司
制造商所在国:
美国
使用方式:
暂无
Satellite Introduction
星链(Starlink)计划是由太空探索技术公司(SpaceX)提出的一个巨型低轨卫星互联网星座项目,计划在2019年至2024年间在太空搭建由约1.2万颗卫星组成的“星链”网络,其中1584颗将部署在地球上空550千米处的近地轨道,并从2020年开始工作。该卫星仍在工作。
2D Orbit Map
3D Orbit Map
Orbit Altitude Analysis Chart
Orbit Inclination Analysis Chart
Orbit Comprehensive Analysis Chart
View Comprehensive Chart
Conjunction Data List
Event ID Objects TCA Miss Dist (km) Collision Risk Probability Collision Risk Index (CRI) Action
CDM_260829-213004-002405-396922
2026-08-29T
21:30:27+0000
1.538 km
极远距离
5.668625E-6 低风险 0.5
CDM_260905-034605-396906-765621
2026-09-05T
03:46:22+0000
1.890 km
极远距离
3.238217E-6 低风险 0.45
CDM_260901-210605-396906-166522
2026-09-01T
21:06:09+0000
2.420 km
极远距离
1.64179E-6 低风险 0.39
CDM_260904-195705-396906-876722
2026-09-04T
19:57:42+0000
2.678 km
极远距离
1.532734E-6 低风险 0.39
CDM_260905-113905-396906-565721
2026-09-05T
11:39:02+0000
2.832 km
极远距离
1.424846E-6 低风险 0.38
CDM_260904-221805-396906-876722
2026-09-04T
22:18:36+0000
2.887 km
极远距离
1.378601E-6 低风险 0.38
CDM_260904-030105-354305-396921
2026-09-04T
03:01:27+0000
2.751 km
极远距离
1.340593E-6 低风险 0.38
CDM_260830-111805-396906-427021
2026-08-30T
11:18:15+0000
2.663 km
极远距离
1.337917E-6 低风险 0.38
CDM_260905-060705-396906-765621
2026-09-05T
06:07:16+0000
2.960 km
极远距离
1.332617E-6 低风险 0.37
CDM_260903-115505-396906-416522
2026-09-03T
11:55:08+0000
2.981 km
极远距离
1.329929E-6 低风险 0.37